Overview Statistics Trail Chart Weather Telemetry Raw packets
 

This is the latest recevied weather packets stored in our database for station/object GW4003. If no packets are shown the sender has not sent any weather packets the latest 10 day(s).

<< 94 95 96 97 98 99 100 >>
Time Temp. Humidity Pressure Rain* Wind** Luminosity Snow
1787931276 26.67° C 35% 1022.6 hPa 0 mm - - -
1787930972 26.11° C 35% 1022.7 hPa 0 mm - - -
1787930667 25.56° C 37% 1022.8 hPa 0 mm - - -
1787930363 25° C 37% 1022.7 hPa 0 mm - - -
1787930059 25° C 37% 1022.7 hPa 0 mm - - -
1787929755 25° C 37% 1022.8 hPa 0 mm - - -
1787929451 25° C 41% 1022.8 hPa 0 mm - - -
1787929148 25° C 40% 1023 hPa 0 mm - - -
1787928844 23.89° C 44% 1023.1 hPa 0 mm - - -
1787928540 23.89° C 44% 1023 hPa 0 mm - - -
1787928236 23.33° C 46% 1023.1 hPa 0 mm - - -
1787927932 22.78° C 51% 1023.1 hPa 0 mm - - -
1787927628 22.22° C 51% 1023.1 hPa 0 mm - - -
1787927324 22.22° C 53% 1023.2 hPa 0 mm - - -
1787927021 21.67° C 54% 1023.2 hPa 0 mm - - -
1787926717 21.11° C 54% 1023.2 hPa 0 mm - - -
1787926413 20.56° C 53% 1023.2 hPa 0 mm - - -
1787926110 20° C 53% 1023.1 hPa 0 mm - - -
1787925806 20° C 55% 1023.2 hPa 0 mm - - -
1787925502 19.44° C 56% 1023.1 hPa 0 mm - - -
1787925198 19.44° C 56% 1023.1 hPa 0 mm - - -
1787924895 19.44° C 56% 1023 hPa 0 mm - - -
1787924591 18.89° C 56% 1023.1 hPa 0 mm - - -
1787924288 18.89° C 57% 1023 hPa 0 mm - - -
1787923984 18.89° C 58% 1023.1 hPa 0 mm - - -

* Rain latest hour (hover to see other rain measurements)
** Current wind speed in m/s (hover to see current wind gust speed)